STARLINK-1500, 45744

Orbit data source: Space-Track

STARLINK-1500, 45744 is a payload satellite owned by SpaceX/Seattle (US) in LEO that was launched on Sat, 13 Jun 2020 UTC via an FALCON 9 launch vehicle from the Air Force Eastern Test Range (AFETR). Payload-class satellites include a variety of spacecraft equipped with specific instruments for various scientific and technological missions. These include communications satellites like Starlink; space stations such as the ISS; scientific satellites like the Hubble; Earth observation satellites from companies like Planet Labs, Umbra, and HawkEye 360; GPS; miniature CubeSats for education and research; and military/defense satellites.

Loading next visibility...
Identifier
45744, 2020-038Q
Orbit
LEO
Country
Flag of USUS
Related business
Manufacturer
SpaceX/Seattle
Mission
Partially operational Commercial Communications
Bus & Motor
STARLINK, Unknown motor
Mass
260 kg wet, ~248 kg dry
Launch date (UTC)
2020-06-13 (5 years ago)
Launch vehicle
FALCON 9
Launch site
Air Force Eastern Test Range (AFETR)
Object type
Payload
Rocket body
Debris
Shape & HBR
Box + 1 Pan, 4.4 m
Radar Cross Section
13.562 m², Large (>1 m²)

Expand to show TLE details & history
Last TLE update: 1 day ago

TLE from 1 day ago
0 STARLINK-1500
1 45744U 20038Q   25260.43086569  .00018797  00000-0  75437-3 0  9994
2 45744  53.0361 279.4337 0005655  60.2038 299.9521 15.25019540290290
Epoch: 2025-09-17T10:20Z
TLE epoch observation values (Epoch: 2025-09-17T10:20:26.795Z)
Latitude
-0°
Longitude
127.71514°
Altitude
489.673 km
Speed
7.622 km/s
True Right ascension
18h 37m 44s
True Declination
0° 00' 00"
Sunlit
Object was in daylight at epoch
Visualization orbit readout
Latitude
Unknown
Longitude
Unknown
Altitude
Unknown
Speed
Unknown
Apparent Right ascension
Unknown
Apparent Declination
Unknown
Sunlit
N/A
Visualization observer readout
Local Sidereal Time
06:40:44
Azimuth
Unknown
Elevation
Unknown
Doppler factor
Unknown
Orbital elements
Apogee altitude
494.887 km
Perigee altitude
487.118 km
Semi-major axis
6,869.14 km
Eccentricity
0.00057
Inclination
53.0361°
RAAN
279.4337°
Arg. of periapsis
60.2038°
True anomaly
299.89593°
Mean anomaly
299.9521°
Eccentric anomaly
299.92402°
Mean motion
3.81232 °/min
Orbital period
94.43 mins
BSTAR
0.00075437
Loading maneuver chart data...
Computing Atmospheric mass density...

Documentation

Showing up to 5 results
|